Location: Minneapolis
(45.0000°N, 93.0000°W)
Time: 21:58:18
(UTC-05:00)

N. Korean satellite - Pass Details

Date: 10 March 2018
Orbit: 459 x 511 km, 97.2° (Epoch: 18 June)

Event Time Altitude Azimuth Distance (km) Brightness Sun altitude
Rises 18:55:21 0° 203° (SSW) 2,517 10.5 -8.5°
Reaches altitude 10° 18:57:53 10° 223° (SW) 1,656 9.8 -9.0°
Maximum altitude 19:00:23 18° 268° (W) 1,255 10.0 -9.4°
Drops below altitude 10° 19:02:56 10° 313° (NW) 1,689 10.1 -9.9°
Sets 19:05:33 0° 332° (NNW) 2,589 10.7 -10.3°
